[[{"header":{"parameterUnit":"m.s-1","parameterCategory":1,"la1":30.2991,"la2":30.254,"lo1":-89.0895,"lo2":-89.0444,"dy":0.0017,"dx":0.0017,"nx":28,"ny":28,"refTime":"2024-07-16T09:00:00:Z","depth":0,"parameterNumber":2,"parameterNumberName":"U-component_of_WINDS"},"data":[0,0,0,0,0,0,0,0,0,0,0,0,0,0,0,0,0,0,0,0,0,0,0,0,0,0,0,0,0,0,0,0,0,0,0,0,0,0,0,0,0,0,0,0,0,0,0,0,0,0,0,0,0,0,0,0,0,0,2.645,2.645,0,2.6461,2.6461,2.6461,2.6406,2.6404,2.6403,2.6401,2.6413,2.6415,2.6417,0,0,0,0,0,0,0,0,0,0,0,0,0,2.638,2.6381,2.645,2.645,2.6451,2.6461,2.6461,2.6462,2.6406,2.6404,2.6402,2.6401,2.6412,2.6415,2.6417,0,0,0,0,0,0,0,0,0,0,0,0,0,2.6403,2.6382,2.645,2.6424,2.6422,2.6461,2.6461,2.6462,2.6407,2.6404,2.6402,2.64,2.6412,2.6414,2.6417,2.6482,0,0,2.6425,2.6426,0,0,0,0,0,0,0,0,2.6401,2.6405,2.6428,2.6426,2.6424,2.643,2.6441,2.6468,2.6407,2.6413,2.6401,2.6399,2.6421,2.6422,2.643,2.6482,2.6483,2.6426,2.6427,2.6428,2.6429,0,0,0,0,0,0,0,2.64,2.6405,2.6455,2.6428,2.6426,2.6412,2.6412,2.6446,2.643,2.6412,2.6408,2.641,2.6419,2.6427,2.643,2.6483,2.6425,2.6428,2.643,2.6431,2.6585,2.6587,0,0,0,0,0,0,2.6402,2.6404,2.6454,2.6455,2.6406,2.6415,2.6415,2.643,2.6429,2.6427,2.6412,2.6407,2.6424,2.6427,2.643,2.6502,2.6428,2.6431,2.6432,2.6583,2.6586,2.6588,0,0,0,0,0,0,2.6401,2.6407,2.6454,2.6428,2.6433,2.6419,2.6436,2.6432,2.644,2.6429,2.6426,2.6423,2.6422,2.6426,2.6468,2.6502,2.6432,2.6435,2.658,2.6583,2.6587,2.6649,0,0,0,0,0,0,2.6399,2.6407,2.6432,2.6429,2.6435,2.6493,2.6438,2.6434,2.6445,2.6439,2.6439,2.6437,2.642,2.6465,2.6471,2.6504,2.6437,2.6576,2.6581,2.6586,2.6644,2.6655,2.6664,0,0,0,0,0,2.6397,2.645,2.6433,2.644,2.6466,2.6495,2.6498,2.6477,2.6448,2.6472,2.6465,2.6437,2.6498,2.6469,2.6476,2.6511,2.6574,2.658,2.6585,2.664,2.6653,2.6664,0,0,0,0,0,0,2.6458,2.6449,2.6431,2.6485,2.6491,2.6485,2.6515,2.6492,2.6507,2.6501,2.6475,2.6476,2.6522,2.6521,2.6489,2.6571,2.6531,2.6538,2.657,2.6582,2.6592,2.659,2.6439,0,0,0,0,0,2.6478,2.6503,2.6494,2.6543,2.6546,2.6531,2.6543,2.6526,2.6531,2.6534,2.653,2.6536,2.6555,2.6569,2.6587,2.6645,2.6642,2.6672,2.6682,2.669,2.6695,2.6722,2.6734,2.6606,2.6606,2.6606,0,0,2.6519,2.6518,2.6535,2.6555,2.6557,2.6582,2.6533,2.6563,2.658,2.6538,2.6576,2.6574,2.6579,2.6628,2.6649,2.6629,2.673,2.6697,2.6703,2.6704,2.6729,2.6741,2.6752,2.661,2.661,2.6609,0,0,2.6606,2.6609,2.6648,2.6651,2.6655,2.6644,2.6653,2.6651,2.6647,2.6685,2.6653,2.6674,2.671,2.6713,2.672,2.6806,2.6779,2.6813,2.6863,2.6889,2.6899,2.6908,2.6935,2.6945,2.6819,2.6819,2.6819,0,2.6657,2.6693,2.6671,2.6701,2.6709,2.6672,2.671,2.6714,2.6724,2.6731,2.6708,2.6749,2.675,2.6798,2.6818,2.6826,2.6834,2.6811,2.6899,2.6908,2.6916,2.6941,2.6952,2.6823,2.6822,2.6822,2.6822,0,2.6753,2.6779,2.681,2.6819,2.6831,2.6865,2.6847,2.6862,2.6844,2.6835,2.6873,2.6873,2.6888,2.6899,2.6883,2.6943,2.693,2.6904,2.6862,2.6932,2.6955,2.6965,2.6828,2.6827,2.6826,2.6825,0,0,2.6879,2.6874,2.6885,2.6887,2.6888,2.6907,2.6939,2.6953,2.6964,2.6973,2.6997,2.7027,2.7002,2.7009,2.6993,2.7017,2.708,2.6987,2.6987,2.7001,2.7143,2.716,2.7172,2.7064,2.7066,2.7067,2.7141,0,2.6961,2.7014,2.6994,2.7048,2.7069,2.7033,2.706,2.7063,2.7056,2.7072,2.7064,2.7084,2.7051,2.7055,2.7077,2.7068,2.7108,2.7063,2.7084,2.7085,2.7081,2.7185,2.7204,2.7273,2.7151,2.7152,2.7153,0,2.7064,2.7074,2.713,2.7124,2.7132,2.7157,2.7166,2.7184,2.7185,2.7178,2.7185,2.7163,2.7192,2.7152,2.7191,2.7161,2.7168,2.7165,2.7168,2.7166,2.7121,2.7183,2.7296,2.7305,2.7168,2.7167,2.7166,0,2.7145,2.7174,2.7209,2.7213,2.7207,2.7225,2.7224,2.7223,2.7232,2.7241,2.7246,2.7259,2.7265,2.7275,2.7257,2.723,2.7297,2.7256,2.7289,2.7289,2.7303,2.7301,2.7414,2.7313,2.7313,2.7313,2.7313,0,2.7237,2.7272,2.7245,2.7267,2.7304,2.728,2.7317,2.7312,2.7311,2.733,2.7302,2.732,2.7296,2.7312,2.7298,2.733,2.7334,2.7327,2.7323,2.7328,2.7328,2.7331,2.7324,2.7316,2.7315,2.7315,2.7314,0,2.7333,2.7317,2.7353,2.7344,2.7343,2.737,2.7362,2.7381,2.7371,2.7396,2.74,2.7384,2.7401,2.7384,2.7401,2.7392,2.7433,2.7423,2.7432,2.7428,2.7461,2.7456,2.7576,2.7589,2.7483,2.7484,2.7485,0,2.7391,2.7416,2.741,2.742,2.742,2.7438,2.7446,2.7423,2.7433,2.7435,2.7454,2.7468,2.7478,2.7507,2.7496,2.7508,2.7496,2.7538,2.7498,2.7501,2.7492,2.749,2.7491,2.7545,2.7546,2.7547,2.7548,0,2.7495,2.7484,2.7497,2.7506,2.7517,2.7523,2.7528,2.7538,2.7514,2.7527,2.7543,2.7551,2.7566,2.758,2.7589,2.7587,2.7562,2.7561,2.7568,2.7572,2.7575,2.757,2.745,2.7557,2.7556,2.7556,2.7555,2.7555,2.7571,2.759,2.7587,2.7601,2.7602,2.7606,2.7622,2.7613,2.7627,2.7636,2.7623,2.7642,2.7641,2.765,2.7651,2.7665,2.7647,2.7659,2.7662,2.7664,2.7667,2.7575,2.7667,2.7667,2.7666,2.7666,2.7666,0,2.7669,2.7665,2.7678,2.7684,2.7695,2.7672,2.7674,2.7685,2.7702,2.7703,2.7713,2.773,2.7743,2.7733,2.7743,2.7757,2.7746,2.776,2.7757,2.7756,2.7684,2.7675,2.7768,2.7768,2.7768,2.7768,2.7768,2.7768,2.7721,2.7751,2.7741,2.777,2.7766,2.7784,2.7787,2.779,2.779,2.781,2.782,2.7814,2.781,2.7819,2.7829,2.7826,2.7829,2.7847,2.7839,2.7772,2.7762,2.7752,2.7743,2.7849,2.7849,2.7909,2.791,2.791]},{"header":{"parameterUnit":"m.s-1","parameterCategory":1,"la1":30.2991,"la2":30.254,"lo1":-89.0895,"lo2":-89.0444,"dy":0.0017,"dx":0.0017,"nx":28,"ny":28,"refTime":"2024-07-16T09:00:00:Z","depth":0,"parameterNumber":3,"parameterNumberName":"V-component_of_WINDS"},"data":[0,0,0,0,0,0,0,0,0,0,0,0,0,0,0,0,0,0,0,0,0,0,0,0,0,0,0,0,0,0,0,0,0,0,0,0,0,0,0,0,0,0,0,0,0,0,0,0,0,0,0,0,0,0,0,0,0,0,5.0557,5.0558,0,5.0699,5.0701,5.0703,5.0679,5.0677,5.0674,5.0672,5.0811,5.0817,5.0823,0,0,0,0,0,0,0,0,0,0,0,0,0,5.0256,5.0262,5.0557,5.0558,5.056,5.0699,5.0701,5.0703,5.068,5.0677,5.0674,5.0671,5.0809,5.0816,5.0823,0,0,0,0,0,0,0,0,0,0,0,0,0,5.0391,5.0264,5.0556,5.0566,5.0568,5.0699,5.0701,5.0703,5.068,5.0677,5.0673,5.067,5.0807,5.0815,5.0824,5.0953,0,0,5.0852,5.0855,0,0,0,0,0,0,0,0,5.0384,5.0402,5.0562,5.0565,5.0568,5.0668,5.0646,5.0787,5.0681,5.0637,5.0672,5.0668,5.0766,5.0778,5.0812,5.0959,5.0965,5.0852,5.0858,5.0862,5.0864,0,0,0,0,0,0,0,5.0374,5.0396,5.0613,5.0565,5.0568,5.056,5.0575,5.0673,5.072,5.0641,5.064,5.0657,5.0767,5.0804,5.0816,5.0967,5.0852,5.086,5.0866,5.0869,5.1224,5.1227,0,0,0,0,0,0,5.0363,5.0388,5.0608,5.0617,5.0465,5.0568,5.0585,5.0639,5.0719,5.0728,5.066,5.0656,5.079,5.0805,5.082,5.0974,5.0862,5.087,5.0875,5.122,5.1224,5.1229,0,0,0,0,0,0,5.0357,5.0383,5.0603,5.0503,5.053,5.0577,5.0638,5.0644,5.0682,5.0734,5.0741,5.069,5.0788,5.0808,5.092,5.0979,5.0874,5.0882,5.1215,5.1221,5.1227,5.1284,0,0,0,0,0,0,5.0349,5.0381,5.0433,5.0504,5.0535,5.0702,5.0642,5.065,5.0698,5.0693,5.0764,5.0772,5.0787,5.0907,5.0929,5.0989,5.0889,5.121,5.1218,5.1225,5.1277,5.1292,5.1304,0,0,0,0,0,5.0338,5.0442,5.0435,5.0462,5.0601,5.0706,5.0724,5.0741,5.0703,5.0753,5.0786,5.077,5.0969,5.0918,5.0943,5.1007,5.1206,5.1215,5.1224,5.1271,5.1289,5.1304,0,0,0,0,0,0,5.0374,5.0452,5.0445,5.0576,5.0635,5.0702,5.0766,5.0759,5.0828,5.082,5.0836,5.0852,5.0965,5.0998,5.094,5.1134,5.1082,5.1096,5.1109,5.1126,5.1139,5.1128,5.0897,0,0,0,0,0,5.0398,5.0479,5.0542,5.0651,5.0681,5.0719,5.0765,5.0773,5.0834,5.0858,5.0899,5.0956,5.1032,5.1081,5.1153,5.1282,5.1295,5.1338,5.1351,5.1362,5.1374,5.1442,5.1461,5.1259,5.1259,5.1258,0,0,5.0447,5.0499,5.0549,5.0659,5.0706,5.0787,5.074,5.0828,5.0887,5.087,5.0979,5.1011,5.1076,5.1196,5.1252,5.1227,5.1433,5.1374,5.1382,5.1388,5.1453,5.1472,5.1489,5.1265,5.1264,5.1263,0,0,5.0577,5.0626,5.0722,5.077,5.0841,5.0866,5.0888,5.0957,5.0978,5.1088,5.1076,5.1146,5.1276,5.1322,5.1362,5.1509,5.1495,5.1532,5.16,5.1666,5.1682,5.1696,5.1746,5.1764,5.1543,5.1544,5.1544,0,5.0628,5.0753,5.0771,5.0861,5.0908,5.0899,5.0994,5.1038,5.1129,5.1161,5.1132,5.1294,5.1337,5.1467,5.1503,5.1537,5.1561,5.1523,5.1679,5.1693,5.1707,5.1754,5.1773,5.1547,5.1547,5.1547,5.1546,0,5.081,5.0897,5.0965,5.1055,5.111,5.1202,5.1231,5.1284,5.1287,5.1314,5.1424,5.1475,5.1557,5.1588,5.1592,5.1718,5.17,5.1676,5.1623,5.1729,5.1774,5.1793,5.1553,5.1552,5.155,5.155,0,0,5.0968,5.1067,5.1091,5.1131,5.1209,5.1274,5.1364,5.1446,5.149,5.1552,5.1626,5.1736,5.1713,5.1759,5.1767,5.1825,5.1935,5.1793,5.1794,5.1816,5.2075,5.2092,5.2113,5.1927,5.193,5.1933,5.2069,0,5.1104,5.1266,5.1284,5.1427,5.1505,5.1497,5.1574,5.1629,5.1656,5.1723,5.1752,5.1829,5.1794,5.1821,5.1878,5.191,5.1987,5.19,5.1993,5.1996,5.1976,5.2137,5.2157,5.2282,5.2087,5.209,5.2092,0,5.1285,5.1354,5.1505,5.1571,5.1604,5.1674,5.1749,5.1816,5.1876,5.1891,5.1942,5.1942,5.2032,5.1977,5.2099,5.2039,5.2078,5.2099,5.2104,5.2112,5.2049,5.2148,5.2323,5.2341,5.212,5.2118,5.2116,0,5.1381,5.1512,5.1619,5.1654,5.1734,5.1783,5.1817,5.1875,5.1922,5.1987,5.2017,5.2092,5.2132,5.2187,5.2206,5.2165,5.2327,5.2274,5.2339,5.2339,5.2372,5.237,5.2554,5.24,5.24,5.24,5.2399,0,5.1531,5.1623,5.1664,5.1729,5.1831,5.1851,5.195,5.1982,5.2033,5.2103,5.2099,5.2164,5.2186,5.2253,5.2268,5.2366,5.2384,5.2396,5.2399,5.2396,5.2394,5.2421,5.2412,5.2405,5.2404,5.2403,5.2402,0,5.1656,5.1688,5.1803,5.1869,5.1888,5.196,5.2015,5.2077,5.2102,5.219,5.2211,5.2251,5.233,5.2355,5.245,5.246,5.2573,5.2569,5.2553,5.2553,5.2616,5.2609,5.2823,5.2851,5.268,5.2682,5.2683,0,5.1748,5.1819,5.1893,5.1941,5.1978,5.2054,5.2103,5.2124,5.2174,5.2248,5.23,5.2379,5.2443,5.2569,5.2604,5.2676,5.2672,5.2742,5.2683,5.2677,5.2671,5.2666,5.2672,5.2753,5.2755,5.2756,5.2757,0,5.1908,5.192,5.1992,5.2069,5.2128,5.2189,5.2247,5.2285,5.2314,5.237,5.2453,5.2502,5.26,5.2677,5.275,5.2783,5.2774,5.2776,5.2794,5.2791,5.2779,5.2784,5.2582,5.2771,5.2769,5.2768,5.2768,5.2767,5.2019,5.2081,5.2142,5.2221,5.2268,5.2323,5.2384,5.2417,5.2487,5.2569,5.2577,5.2665,5.2721,5.2818,5.2855,5.2922,5.2901,5.2929,5.2935,5.2941,5.2946,5.277,5.2935,5.2935,5.2935,5.2934,5.2934,0,5.2177,5.2216,5.2289,5.2372,5.2433,5.2423,5.2486,5.2538,5.2616,5.267,5.2734,5.2827,5.2901,5.2943,5.3016,5.3062,5.3059,5.308,5.3076,5.3083,5.2961,5.2936,5.3081,5.3081,5.3081,5.3081,5.3081,5.3081,5.2266,5.237,5.2389,5.2514,5.2552,5.264,5.2677,5.2726,5.277,5.2874,5.2937,5.2964,5.3013,5.309,5.3157,5.3167,5.3193,5.3216,5.3223,5.3107,5.3092,5.3078,5.3055,5.3222,5.3222,5.334,5.3341,5.3342]}]]